[[{"header":{"parameterUnit":"m.s-1","parameterCategory":1,"la1":30.2991,"la2":30.254,"lo1":-89.0895,"lo2":-89.0444,"dy":0.0017,"dx":0.0017,"nx":28,"ny":28,"refTime":"2024-07-31T03:00:00:Z","depth":0,"parameterNumber":2,"parameterNumberName":"U-component_of_WINDS"},"data":[0,0,0,0,0,0,0,0,0,0,0,0,0,0,0,0,0,0,0,0,0,0,0,0,0,0,0,0,0,0,0,0,0,0,0,0,0,0,0,0,0,0,0,0,0,0,0,0,0,0,0,0,0,0,0,0,0,0,0.1585,0.1586,0,0.1679,0.168,0.1681,0.1695,0.1694,0.1693,0.1692,0.1793,0.1796,0.18,0,0,0,0,0,0,0,0,0,0,0,0,0,0.1418,0.1421,0.1585,0.1586,0.1587,0.1679,0.168,0.1682,0.1695,0.1694,0.1693,0.1692,0.1792,0.1796,0.18,0,0,0,0,0,0,0,0,0,0,0,0,0,0.15,0.1422,0.1584,0.1605,0.1607,0.1679,0.168,0.1682,0.1695,0.1694,0.1692,0.1691,0.179,0.1795,0.1801,0.186,0,0,0.1817,0.1819,0,0,0,0,0,0,0,0,0.1495,0.1506,0.16,0.1603,0.1607,0.1674,0.1659,0.1742,0.1695,0.1662,0.1692,0.1691,0.1754,0.1763,0.1783,0.1864,0.1869,0.1817,0.182,0.1823,0.1824,0,0,0,0,0,0,0,0.1489,0.1502,0.1622,0.1602,0.1606,0.161,0.162,0.1674,0.1715,0.1665,0.1666,0.1677,0.1756,0.1778,0.1786,0.187,0.1817,0.1822,0.1825,0.1827,0.2004,0.2005,0,0,0,0,0,0,0.148,0.1497,0.1619,0.1625,0.1546,0.1614,0.1625,0.1654,0.1714,0.1722,0.1678,0.1677,0.177,0.178,0.1789,0.1862,0.1822,0.1827,0.183,0.2002,0.2004,0.2006,0,0,0,0,0,0,0.1476,0.149,0.1615,0.1561,0.1578,0.1618,0.165,0.1656,0.1679,0.1724,0.1731,0.1693,0.1769,0.1782,0.1842,0.1866,0.183,0.1835,0.2001,0.2003,0.2005,0.2009,0,0,0,0,0,0,0.1471,0.1489,0.1511,0.1562,0.158,0.1665,0.1652,0.1659,0.1687,0.1687,0.174,0.1748,0.1769,0.1834,0.1847,0.1873,0.1839,0.1999,0.2002,0.2004,0.2007,0.2011,0.2015,0,0,0,0,0,0.1465,0.151,0.1512,0.1527,0.1609,0.1667,0.1678,0.17,0.1689,0.1712,0.1741,0.1746,0.1861,0.184,0.1855,0.1882,0.1997,0.2001,0.2004,0.2005,0.201,0.2015,0,0,0,0,0,0,0.1463,0.1517,0.152,0.1582,0.162,0.1669,0.1699,0.1705,0.1747,0.1746,0.1773,0.1785,0.1843,0.1869,0.1844,0.1943,0.1928,0.1935,0.1924,0.1929,0.1933,0.1926,0.1843,0,0,0,0,0,0.1469,0.151,0.1556,0.1606,0.1624,0.1658,0.1684,0.1698,0.1739,0.1755,0.1788,0.1828,0.1873,0.1903,0.1947,0.201,0.2022,0.2037,0.2041,0.2044,0.2049,0.2084,0.2091,0.2017,0.2017,0.2017,0,0,0.1483,0.1518,0.1543,0.1606,0.1637,0.168,0.1672,0.1718,0.175,0.1762,0.182,0.1846,0.1892,0.1954,0.1983,0.1977,0.2072,0.2048,0.205,0.2054,0.2089,0.2096,0.2102,0.202,0.2019,0.2019,0,0,0.1531,0.1561,0.1606,0.1637,0.1682,0.1704,0.1715,0.1763,0.178,0.1838,0.1848,0.1887,0.1965,0.1997,0.2024,0.2082,0.2088,0.2096,0.2117,0.2151,0.2156,0.2162,0.2183,0.219,0.2101,0.2101,0.2101,0,0.1544,0.1608,0.1629,0.1674,0.1702,0.1713,0.1759,0.1788,0.1847,0.1866,0.1858,0.1954,0.1986,0.2055,0.2069,0.209,0.2104,0.209,0.2154,0.2159,0.2165,0.2185,0.2192,0.2102,0.2102,0.2101,0.2101,0,0.1621,0.1665,0.1696,0.175,0.1781,0.1827,0.1856,0.1885,0.1896,0.1919,0.1978,0.2016,0.2068,0.2085,0.2097,0.2156,0.2151,0.2148,0.2134,0.2172,0.2191,0.2199,0.2102,0.2102,0.2102,0.2102,0,0,0.1672,0.1735,0.1746,0.1771,0.1821,0.1857,0.1902,0.1951,0.1976,0.2015,0.2055,0.2119,0.2116,0.2146,0.2162,0.2191,0.2235,0.2185,0.2187,0.2193,0.2302,0.2304,0.2313,0.2239,0.224,0.2242,0.2298,0,0.1726,0.1806,0.1826,0.1896,0.1937,0.1947,0.1987,0.2023,0.2045,0.2084,0.2109,0.2154,0.2147,0.2165,0.2195,0.2223,0.2257,0.2219,0.2277,0.2278,0.2265,0.2323,0.2326,0.2377,0.2306,0.2307,0.2308,0,0.18,0.1839,0.1912,0.1956,0.1974,0.201,0.2056,0.2093,0.2133,0.2147,0.218,0.2192,0.2241,0.2223,0.2291,0.2265,0.2289,0.2306,0.2309,0.2316,0.2296,0.2332,0.2394,0.2402,0.232,0.2319,0.2319,0,0.1829,0.1901,0.1954,0.1974,0.2027,0.2052,0.2075,0.2114,0.2142,0.2182,0.2201,0.2247,0.2272,0.2308,0.2332,0.2317,0.2397,0.2382,0.2411,0.2411,0.2428,0.2427,0.2496,0.2443,0.2443,0.2443,0.2443,0,0.1888,0.1933,0.1967,0.2,0.205,0.2072,0.2121,0.2145,0.218,0.2217,0.223,0.2265,0.2294,0.2334,0.2353,0.2406,0.2418,0.2431,0.2436,0.243,0.2428,0.2447,0.2444,0.2445,0.2445,0.2444,0.2444,0,0.193,0.1955,0.2013,0.2058,0.207,0.2105,0.2144,0.2176,0.2198,0.2245,0.2258,0.2293,0.234,0.2367,0.2427,0.244,0.2498,0.2501,0.2484,0.2486,0.2514,0.2511,0.2597,0.261,0.2548,0.2549,0.2549,0,0.1966,0.2,0.2048,0.2073,0.2097,0.2138,0.2166,0.2189,0.2217,0.2265,0.2292,0.2339,0.2378,0.2453,0.2484,0.253,0.2534,0.2561,0.2541,0.2534,0.2535,0.2532,0.2536,0.2565,0.2566,0.2566,0.2566,0,0.2027,0.2038,0.2077,0.212,0.2153,0.2188,0.2224,0.2244,0.2273,0.2305,0.2352,0.2382,0.2442,0.2489,0.2537,0.2562,0.2569,0.2572,0.2581,0.2576,0.2565,0.2571,0.2494,0.257,0.257,0.257,0.257,0.2569,0.2068,0.2098,0.2136,0.2179,0.2208,0.224,0.2272,0.2297,0.2337,0.2387,0.2398,0.2448,0.2487,0.2551,0.2577,0.2617,0.2612,0.2626,0.2629,0.2632,0.2633,0.2558,0.2626,0.2626,0.2626,0.2626,0.2626,0,0.213,0.2154,0.2193,0.2242,0.2275,0.2277,0.2316,0.2345,0.2388,0.2423,0.2461,0.2515,0.256,0.2594,0.264,0.2666,0.267,0.2677,0.2676,0.2681,0.2634,0.2622,0.2673,0.2673,0.2673,0.2672,0.2672,0.2672,0.2166,0.2218,0.2232,0.2298,0.2322,0.237,0.2392,0.2422,0.245,0.2509,0.2546,0.2568,0.2602,0.2651,0.2693,0.2701,0.2718,0.2725,0.2734,0.269,0.2685,0.268,0.2668,0.2728,0.2728,0.2778,0.2778,0.2778]},{"header":{"parameterUnit":"m.s-1","parameterCategory":1,"la1":30.2991,"la2":30.254,"lo1":-89.0895,"lo2":-89.0444,"dy":0.0017,"dx":0.0017,"nx":28,"ny":28,"refTime":"2024-07-31T03:00:00:Z","depth":0,"parameterNumber":3,"parameterNumberName":"V-component_of_WINDS"},"data":[0,0,0,0,0,0,0,0,0,0,0,0,0,0,0,0,0,0,0,0,0,0,0,0,0,0,0,0,0,0,0,0,0,0,0,0,0,0,0,0,0,0,0,0,0,0,0,0,0,0,0,0,0,0,0,0,0,0,2.3922,2.3922,0,2.3959,2.3959,2.396,2.3961,2.396,2.396,2.396,2.3995,2.3997,2.3998,0,0,0,0,0,0,0,0,0,0,0,0,0,2.3846,2.3847,2.3922,2.3922,2.3923,2.3959,2.3959,2.396,2.3961,2.396,2.396,2.3959,2.3995,2.3996,2.3998,0,0,0,0,0,0,0,0,0,0,0,0,0,2.3881,2.3848,2.3922,2.3928,2.3928,2.3959,2.3959,2.396,2.3961,2.396,2.396,2.3959,2.3994,2.3996,2.3998,2.4024,0,0,2.4004,2.4005,0,0,0,0,0,0,0,0,2.3879,2.3883,2.3926,2.3927,2.3928,2.3955,2.3946,2.3981,2.3961,2.3949,2.396,2.3959,2.3982,2.3985,2.3993,2.4026,2.4027,2.4005,2.4006,2.4007,2.4007,0,0,0,0,0,0,0,2.3876,2.3882,2.3936,2.3927,2.3928,2.3926,2.3931,2.3952,2.3969,2.395,2.395,2.3954,2.3982,2.3991,2.3994,2.4028,2.4005,2.4006,2.4008,2.4008,2.4077,2.4078,0,0,0,0,0,0,2.3873,2.388,2.3935,2.3937,2.3901,2.3928,2.3933,2.3947,2.3968,2.3971,2.3955,2.3954,2.3988,2.3992,2.3996,2.4024,2.4007,2.4009,2.401,2.4077,2.4078,2.4078,0,0,0,0,0,0,2.3872,2.3878,2.3934,2.3909,2.3915,2.393,2.3946,2.3948,2.3957,2.3972,2.3975,2.3961,2.3988,2.3993,2.4016,2.4025,2.401,2.4011,2.4076,2.4077,2.4078,2.4083,0,0,0,0,0,0,2.3869,2.3878,2.3889,2.3909,2.3917,2.3955,2.3946,2.3949,2.3961,2.396,2.3979,2.3982,2.3988,2.4013,2.4018,2.4028,2.4013,2.4075,2.4076,2.4078,2.4082,2.4084,2.4085,0,0,0,0,0,2.3867,2.389,2.389,2.3897,2.3932,2.3956,2.396,2.3968,2.3962,2.3972,2.3981,2.3981,2.4023,2.4015,2.4021,2.4032,2.4075,2.4076,2.4077,2.4081,2.4083,2.4085,0,0,0,0,0,0,2.3872,2.3893,2.3893,2.3924,2.3938,2.3956,2.397,2.3971,2.3987,2.3985,2.3993,2.3997,2.4019,2.4028,2.4018,2.4055,2.4048,2.4051,2.4049,2.4051,2.4053,2.405,2.4015,0,0,0,0,0,2.3877,2.3895,2.3912,2.3937,2.3944,2.3956,2.3967,2.397,2.3985,2.3991,2.4002,2.4015,2.4031,2.4042,2.4057,2.4083,2.4085,2.4092,2.4094,2.4095,2.4097,2.4107,2.4109,2.4083,2.4083,2.4083,0,0,2.3887,2.39,2.3912,2.3939,2.395,2.3967,2.3961,2.3981,2.3992,2.3994,2.4016,2.4024,2.4039,2.4062,2.4073,2.407,2.4105,2.4097,2.4098,2.4099,2.4109,2.4111,2.4113,2.4084,2.4083,2.4083,0,0,2.3913,2.3927,2.3947,2.3958,2.3974,2.3981,2.3986,2.4003,2.4008,2.403,2.403,2.4043,2.4072,2.4081,2.4089,2.4113,2.4113,2.4118,2.4127,2.4137,2.4139,2.414,2.4146,2.4149,2.412,2.412,2.412,0,2.3923,2.395,2.3957,2.3975,2.3985,2.3986,2.4005,2.4015,2.4036,2.4042,2.4038,2.407,2.4081,2.4104,2.4109,2.4117,2.412,2.4116,2.4138,2.414,2.4142,2.4147,2.415,2.412,2.412,2.412,2.412,0,2.396,2.3978,2.3992,2.4011,2.4022,2.4041,2.4048,2.4058,2.406,2.4066,2.4086,2.4098,2.4114,2.412,2.4123,2.4142,2.4139,2.4137,2.413,2.4144,2.415,2.4152,2.4121,2.4121,2.4121,2.4121,0,0,2.3993,2.4012,2.4017,2.4024,2.404,2.4053,2.407,2.4085,2.4092,2.4106,2.4118,2.4139,2.4135,2.4145,2.4148,2.4156,2.417,2.4152,2.4152,2.4153,2.4189,2.4189,2.4192,2.4169,2.417,2.417,2.4186,0,2.4019,2.4049,2.4054,2.4079,2.4094,2.4093,2.4106,2.4116,2.4121,2.4133,2.4138,2.4152,2.4148,2.4153,2.4161,2.4167,2.4177,2.4166,2.4179,2.4179,2.4174,2.4195,2.4197,2.4212,2.4189,2.4189,2.419,0,2.4055,2.4067,2.4094,2.4104,2.411,2.4123,2.4134,2.4146,2.4156,2.4159,2.4167,2.4168,2.4182,2.4174,2.4192,2.4184,2.4189,2.4192,2.4192,2.4193,2.4185,2.4195,2.4218,2.4219,2.4193,2.4193,2.4193,0,2.4072,2.4096,2.4114,2.412,2.4133,2.4141,2.4146,2.4155,2.4163,2.4173,2.4177,2.4189,2.4195,2.4203,2.4205,2.42,2.4221,2.4215,2.4222,2.4222,2.4227,2.4226,2.4249,2.4232,2.4232,2.4232,2.4232,0,2.41,2.4116,2.4121,2.4132,2.4148,2.4151,2.4167,2.4172,2.4179,2.4189,2.4189,2.4198,2.4202,2.4211,2.4213,2.4225,2.4229,2.423,2.423,2.4229,2.4229,2.4232,2.4231,2.4233,2.4233,2.4232,2.4232,0,2.4122,2.4127,2.4146,2.4156,2.4158,2.4169,2.4177,2.4186,2.4189,2.4202,2.4205,2.421,2.422,2.4223,2.4236,2.4237,2.4251,2.4251,2.4248,2.4247,2.4254,2.4252,2.4279,2.4281,2.4264,2.4264,2.4264,0,2.4139,2.4151,2.4161,2.4167,2.4173,2.4184,2.419,2.4193,2.42,2.4209,2.4216,2.4226,2.4235,2.425,2.4255,2.4263,2.4262,2.4271,2.4264,2.4261,2.426,2.4259,2.4259,2.4272,2.4272,2.4272,2.4272,0,2.4167,2.4168,2.4178,2.4188,2.4196,2.4204,2.4211,2.4216,2.4219,2.4227,2.4237,2.4243,2.4254,2.4263,2.4271,2.4275,2.4273,2.4274,2.4276,2.4275,2.4272,2.4272,2.425,2.4274,2.4274,2.4274,2.4274,2.4273,2.4186,2.4194,2.4201,2.4212,2.4217,2.4223,2.4231,2.4235,2.4243,2.4253,2.4253,2.4263,2.4269,2.4279,2.4283,2.429,2.4288,2.4291,2.4291,2.4292,2.4291,2.4271,2.4292,2.4292,2.4292,2.4292,2.4292,0,2.4211,2.4215,2.4224,2.4234,2.4241,2.4238,2.4245,2.4251,2.426,2.4266,2.4273,2.4282,2.429,2.4294,2.4301,2.4305,2.4304,2.4307,2.4306,2.4306,2.4294,2.4291,2.4307,2.4307,2.4307,2.4307,2.4307,2.4307,2.4225,2.4239,2.424,2.4254,2.4258,2.4268,2.4271,2.4276,2.428,2.4291,2.4297,2.4299,2.4303,2.431,2.4316,2.4316,2.4318,2.4321,2.4321,2.4309,2.4308,2.4306,2.4303,2.4322,2.4322,2.4332,2.4332,2.4333]}]]